TimeCST,TemperatureF,Dew PointF,Humidity,Sea Level PressureIn,VisibilityMPH,Wind Direction,Wind SpeedMPH,Gust SpeedMPH,PrecipitationIn,Events,Conditions,WindDirDegrees,DateUTC
12:15 AM,23.9,21.6,91,29.98,5.0,North,3.5,-,N/A,Snow,Light Snow,360,2012-12-28 06:15:00
12:35 AM,23.7,21.4,91,29.97,5.0,Calm,Calm,-,N/A,Snow,Light Snow,0,2012-12-28 06:35:00
12:55 AM,23.7,21.6,91,29.97,4.0,Calm,Calm,-,N/A,Snow,Light Snow,0,2012-12-28 06:55:00
1:15 AM,23.4,21.4,92,29.97,4.0,North,3.5,-,N/A,Snow,Light Snow,350,2012-12-28 07:15:00
1:35 AM,23.4,21.6,93,29.97,4.0,Calm,Calm,-,N/A,Snow,Light Snow,0,2012-12-28 07:35:00
1:55 AM,23.0,21.6,94,29.97,4.0,NW,4.6,-,N/A,Snow,Light Snow,320,2012-12-28 07:55:00
2:15 AM,23.0,21.4,94,29.97,4.0,NNW,3.5,-,N/A,Snow,Light Snow,340,2012-12-28 08:15:00
2:35 AM,23.0,21.2,93,29.97,4.0,NNW,4.6,-,N/A,Snow,Light Snow,340,2012-12-28 08:35:00
2:55 AM,23.0,21.2,93,29.98,4.0,NNW,4.6,-,N/A,Snow,Light Snow,330,2012-12-28 08:55:00
3:15 AM,23.0,21.4,94,29.98,4.0,NW,5.8,-,N/A,Snow,Light Snow,320,2012-12-28 09:15:00
3:35 AM,23.0,21.2,93,29.97,4.0,NW,5.8,-,N/A,Snow,Light Snow,320,2012-12-28 09:35:00
3:55 AM,23.0,21.2,93,29.97,4.0,NW,5.8,-,N/A,Snow,Light Snow,310,2012-12-28 09:55:00
4:15 AM,23.0,21.2,93,29.97,5.0,NW,4.6,-,N/A,Snow,Light Snow,320,2012-12-28 10:15:00
4:35 AM,23.0,21.2,93,29.97,5.0,NW,4.6,-,N/A,Snow,Light Snow,320,2012-12-28 10:35:00
5:15 AM,22.8,21.0,93,29.96,4.0,NW,4.6,-,N/A,Snow,Light Snow,320,2012-12-28 11:15:00
5:35 AM,22.8,21.0,93,29.96,4.0,NW,4.6,-,N/A,Snow,Light Snow,310,2012-12-28 11:35:00
5:55 AM,22.6,20.8,93,29.96,5.0,NW,5.8,-,N/A,Snow,Light Snow,310,2012-12-28 11:55:00
6:15 AM,22.5,20.3,91,29.96,5.0,NW,6.9,-,N/A,Snow,Light Snow,310,2012-12-28 12:15:00
6:35 AM,22.3,20.3,92,29.97,5.0,NW,6.9,-,N/A,Snow,Light Snow,310,2012-12-28 12:35:00
6:55 AM,22.1,20.1,92,29.97,5.0,NW,5.8,-,N/A,Snow,Light Snow,310,2012-12-28 12:55:00
7:15 AM,21.9,19.8,91,29.97,5.0,WNW,5.8,-,N/A,Snow,Light Snow,300,2012-12-28 13:15:00
7:35 AM,21.7,19.8,92,29.98,5.0,NW,4.6,-,N/A,Snow,Light Snow,320,2012-12-28 13:35:00
7:55 AM,21.7,19.6,91,29.98,5.0,NW,5.8,-,N/A,Snow,Light Snow,310,2012-12-28 13:55:00
8:15 AM,21.6,19.4,91,29.98,4.0,WNW,3.5,-,N/A,,Overcast,290,2012-12-28 14:15:00
8:35 AM,21.6,19.4,91,29.98,4.0,NW,3.5,-,N/A,,Overcast,310,2012-12-28 14:35:00
8:55 AM,21.6,19.4,91,29.99,4.0,WNW,4.6,-,N/A,,Overcast,300,2012-12-28 14:55:00
9:15 AM,21.6,19.4,91,29.99,4.0,NW,5.8,-,N/A,,Overcast,310,2012-12-28 15:15:00
9:35 AM,21.9,19.4,90,30.00,4.0,WNW,5.8,-,N/A,,Overcast,300,2012-12-28 15:35:00
9:55 AM,22.1,19.4,89,30.00,4.0,NW,4.6,-,N/A,,Overcast,310,2012-12-28 15:55:00
10:15 AM,22.6,19.4,87,30.00,5.0,NW,6.9,-,N/A,,Overcast,310,2012-12-28 16:15:00
10:35 AM,23.0,19.2,85,30.00,5.0,NW,5.8,16.1,N/A,,Overcast,320,2012-12-28 16:35:00
10:55 AM,23.4,19.2,84,30.00,5.0,NW,6.9,-,N/A,,Overcast,320,2012-12-28 16:55:00
11:15 AM,23.5,19.0,83,30.00,5.0,NW,8.1,-,N/A,,Overcast,310,2012-12-28 17:15:00
11:35 AM,23.5,18.9,82,30.00,5.0,WNW,8.1,-,N/A,,Overcast,290,2012-12-28 17:35:00
11:55 AM,23.5,18.5,81,29.99,5.0,WNW,8.1,-,N/A,,Haze,300,2012-12-28 17:55:00
12:15 PM,23.7,18.9,82,29.98,7.0,WNW,8.1,-,N/A,,Overcast,300,2012-12-28 18:15:00
12:35 PM,23.9,18.5,80,29.97,7.0,WNW,8.1,-,N/A,,Overcast,290,2012-12-28 18:35:00
12:55 PM,24.1,19.0,81,29.97,7.0,West,9.2,-,N/A,,Overcast,280,2012-12-28 18:55:00
1:15 PM,23.9,18.7,80,29.96,5.0,WNW,10.4,-,N/A,,Haze,290,2012-12-28 19:15:00
1:35 PM,23.7,18.5,80,29.96,7.0,WNW,10.4,-,N/A,,Overcast,290,2012-12-28 19:35:00
1:55 PM,23.5,18.5,81,29.96,5.0,WNW,11.5,-,N/A,,Haze,290,2012-12-28 19:55:00
2:15 PM,23.0,18.5,83,29.96,5.0,WNW,11.5,-,N/A,,Haze,300,2012-12-28 20:15:00
2:35 PM,23.2,18.3,82,29.97,5.0,WNW,9.2,-,N/A,Snow,Light Snow,300,2012-12-28 20:35:00
2:55 PM,23.4,18.5,82,29.97,5.0,WNW,9.2,-,N/A,Snow,Light Snow,300,2012-12-28 20:55:00
3:15 PM,23.5,18.9,82,29.98,4.0,WNW,12.7,-,N/A,Snow,Light Snow,290,2012-12-28 21:15:00
3:35 PM,23.0,18.3,82,29.98,5.0,NW,13.8,-,N/A,Snow,Light Snow,320,2012-12-28 21:35:00
3:55 PM,22.8,18.1,82,29.99,5.0,NW,9.2,-,N/A,,Haze,310,2012-12-28 21:55:00
4:35 PM,22.6,18.7,85,30.00,5.0,NW,9.2,-,N/A,Snow,Light Snow,320,2012-12-28 22:35:00
4:55 PM,22.1,18.3,85,30.00,5.0,NW,9.2,-,N/A,Snow,Light Snow,310,2012-12-28 22:55:00
5:15 PM,22.1,18.5,86,30.01,7.0,NW,9.2,-,N/A,Snow,Light Snow,310,2012-12-28 23:15:00
5:55 PM,21.7,18.3,87,30.02,7.0,WNW,10.4,-,N/A,,Overcast,300,2012-12-28 23:55:00
6:15 PM,21.2,17.6,86,30.02,10.0,NW,12.7,-,N/A,,Overcast,310,2012-12-29 00:15:00
6:35 PM,21.0,17.4,86,30.03,7.0,NW,11.5,-,N/A,,Overcast,310,2012-12-29 00:35:00
7:15 PM,20.3,16.3,85,30.04,7.0,WNW,13.8,-,N/A,,Overcast,300,2012-12-29 01:15:00
7:35 PM,18.5,14.7,85,30.05,10.0,NW,11.5,-,N/A,,Overcast,310,2012-12-29 01:35:00
7:55 PM,18.1,14.4,85,30.06,10.0,NW,12.7,-,N/A,,Overcast,310,2012-12-29 01:55:00
8:15 PM,18.3,14.7,86,30.06,7.0,NW,12.7,-,N/A,,Overcast,320,2012-12-29 02:15:00
8:35 PM,18.1,14.4,85,30.07,7.0,NW,11.5,-,N/A,,Overcast,320,2012-12-29 02:35:00
8:55 PM,18.1,14.4,85,30.07,7.0,NW,12.7,-,N/A,,Overcast,320,2012-12-29 02:55:00
9:15 PM,18.1,14.4,85,30.07,7.0,NW,10.4,-,N/A,,Overcast,320,2012-12-29 03:15:00
9:35 PM,18.0,14.0,84,30.07,7.0,NW,10.4,-,N/A,,Overcast,320,2012-12-29 03:35:00
9:55 PM,18.0,14.0,84,30.07,7.0,NNW,11.5,-,N/A,,Overcast,330,2012-12-29 03:55:00
10:15 PM,18.0,14.0,84,30.08,7.0,NNW,11.5,16.1,N/A,,Overcast,340,2012-12-29 04:15:00
10:35 PM,18.0,14.4,86,30.08,5.0,NW,11.5,-,N/A,Snow,Light Snow,320,2012-12-29 04:35:00
10:55 PM,18.1,14.5,86,30.09,7.0,NW,10.4,-,N/A,,Overcast,320,2012-12-29 04:55:00
11:15 PM,18.1,14.7,86,30.09,7.0,NW,10.4,-,N/A,Snow,Light Snow,310,2012-12-29 05:15:00
11:35 PM,18.3,14.9,86,30.09,7.0,NW,8.1,-,N/A,,Overcast,320,2012-12-29 05:35:00
11:55 PM,18.5,14.9,86,30.09,7.0,NW,9.2,-,N/A,,Overcast,310,2012-12-29 05:55:00